Wind_Speed
36 35 34 34 33 30 29 27 26 25 25 24 23 22 22 21 21 22 22 21 21 21 22 22 22 22 22 23 23 24 24 24 24 24 25 25 25 25 26 26 26 26 26
36 35 34 34 34 33 31 29 28 27 26 25 24 23 23 23 23 23 23 23 23 24 24 24 24 24 24 25 25 25 26 26 27 26 27 27 27 28 28 28 28 28 28
36 35 33 34 34 34 32 30 30 29 28 27 26 25 25 25 24 24 24 24 24 25 25 26 26 26 26 26 27 27 28 28 28 28 29 29 30 30 30 30 31 31 31
37 36 34 34 33 33 31 31 30 29 28 28 27 27 26 26 25 25 25 26 26 26 26 27 27 27 27 28 29 29 29 30 30 30 30 31 31 31 32 32 33 34 34
37 37 36 35 33 32 32 31 31 30 30 29 28 28 28 28 28 27 27 27 28 28 28 29 29 29 29 29 30 30 30 31 31 32 32 33 33 33 34 34 35 35 36
37 35 35 34 33 33 32 32 32 32 32 31 30 30 29 29 29 29 29 29 29 29 29 29 30 30 31 31 32 32 32 32 33 34 34 35 35 36 36 36 36 37 37
38 36 35 35 34 34 34 33 33 34 34 34 33 32 31 30 30 30 30 30 29 30 30 31 31 32 32 33 34 34 34 35 35 36 36 37 37 37 38 38 38 38 39
37 36 35 35 34 34 33 34 35 35 35 35 35 34 33 32 32 32 32 32 32 32 32 32 33 34 34 35 36 36 36 37 38 38 39 39 39 40 40 40 41 41 41
39 38 37 37 36 35 35 35 35 35 35 36 36 36 35 34 34 34 35 35 35 36 36 36 35 36 36 37 37 38 38 39 40 40 40 41 42 42 43 43 43 44 44
38 38 37 36 36 36 36 35 36 36 35 36 36 36 37 36 36 36 37 37 38 38 38 37 37 38 39 38 39 40 40 41 41 42 42 43 44 45 45 45 46 46 46
38 38 38 38 38 37 37 36 37 36 36 36 37 37 37 38 39 38 38 38 39 39 40 39 39 39 40 41 41 41 42 42 43 44 45 45 46 46 47 48 48 48 48
37 38 39 39 38 37 37 37 38 38 38 38 38 39 39 41 42 42 41 40 40 41 41 40 40 41 42 43 44 44 45 45 45 46 47 48 48 49 49 49 49 50 50
37 37 37 37 37 37 36 37 37 38 39 40 40 40 40 41 42 43 43 42 42 42 42 43 43 44 44 45 46 47 47 47 48 48 49 49 50 50 50 50 51 51 51
37 37 36 37 37 37 38 38 38 39 40 40 41 41 42 42 43 44 44 44 44 44 44 45 45 46 47 47 48 48 49 49 50 50 50 50 50 51 51 52 52 52 52
36 37 38 38 39 38 38 38 38 39 41 42 42 43 44 44 44 44 45 45 45 46 46 47 48 49 49 49 49 49 50 51 51 52 52 52 52 52 52 52 53 53 52
36 36 37 38 38 38 39 39 39 41 42 42 43 44 44 45 45 45 45 46 47 48 49 49 50 51 51 50 51 50 51 52 52 53 53 53 53 53 53 53 54 54 53
35 35 36 37 38 38 38 38 38 39 41 42 43 44 44 45 46 46 47 48 49 50 50 51 52 52 52 52 51 51 52 53 53 54 54 54 54 54 55 55 55 55 54
35 34 35 37 38 37 38 38 39 40 40 42 43 43 44 46 47 48 49 50 51 51 52 52 52 52 52 53 53 54 53 54 54 55 55 55 55 56 56 56 56 56 55
36 36 37 38 39 39 40 40 41 42 42 43 44 45 46 47 47 48 49 50 51 51 52 52 53 54 54 55 54 55 55 55 55 56 56 56 56 57 57 57 57 56 56
38 39 39 40 40 41 42 42 43 43 44 45 46 47 48 49 49 50 50 50 51 52 52 53 53 54 55 55 55 55 55 55 55 56 56 56 56 56 56 56 56 56 56
39 40 40 41 41 42 43 44 44 45 46 47 48 49 50 50 51 52 52 52 53 53 53 53 53 54 54 54 55 56 56 56 56 56 56 57 57 56 56 56 56 56 56
40 41 41 42 42 43 44 45 46 47 48 49 50 51 51 51 52 52 53 53 52 52 53 53 53 53 54 55 56 56 56 56 56 56 56 55 55 55 56 56 56 56 56
40 41 43 44 44 44 45 46 47 49 50 51 51 51 51 52 52 52 53 53 52 53 53 53 53 54 55 55 56 57 57 57 56 55 55 54 54 54 55 55 55 55 55
42 43 44 46 47 47 48 48 49 50 51 51 52 52 52 52 52 52 52 52 52 52 53 53 54 54 55 56 56 56 56 56 55 55 55 54 54 54 54 54 54 54 53
43 44 45 46 47 48 49 50 51 52 52 52 53 53 53 53 53 52 52 52 52 52 53 53 54 55 56 56 56 56 55 55 54 54 55 54 53 53 52 52 52 52 52
43 45 46 47 47 48 49 51 51 51 51 51 52 52 53 53 53 53 54 54 53 53 54 54 54 55 55 56 56 56 55 55 54 54 54 54 54 53 52 51 51 52 52
Wind_Direction
227 228 229 230 230 231 232 234 236 238 240 243 246 250 255 259 264 267 270 271 274 277 280 281 283 284 286 288 290 291 291 292 292 293 294 295 295 296 297 297 299 299 299
227 226 228 230 231 231 232 234 237 239 242 245 247 250 254 258 263 266 268 271 274 277 279 280 281 283 285 287 288 290 291 291 291 291 292 293 294 295 295 295 296 297 297
228 228 228 229 230 231 233 235 238 239 243 245 248 251 255 259 262 266 269 273 276 277 278 280 281 284 285 287 288 290 291 292 291 291 291 292 293 293 294 294 294 295 296
228 228 229 230 231 232 234 236 239 241 244 245 248 251 256 258 263 267 271 273 276 277 278 280 281 283 285 287 289 289 290 291 291 291 291 291 292 292 293 293 293 293 294
230 229 230 232 233 233 235 237 239 241 244 245 249 254 257 259 263 267 270 273 275 276 277 279 281 282 285 287 288 289 290 289 289 290 290 290 291 292 292 292 292 293 293
230 228 229 230 230 232 235 238 239 242 245 247 251 256 259 261 263 266 267 270 274 277 278 279 279 281 283 285 286 288 289 289 289 290 290 290 290 291 291 291 291 292 293
229 228 229 232 233 236 239 242 244 245 247 249 252 256 261 263 264 266 267 270 274 277 277 278 280 281 282 283 285 286 287 289 289 290 290 290 290 290 290 291 291 291 292
229 229 231 233 235 239 243 246 248 249 250 251 254 257 260 263 264 266 269 273 274 276 278 280 281 282 282 283 284 285 286 288 289 289 289 289 289 289 289 290 289 289 290
230 232 234 235 236 241 245 248 250 251 252 254 257 259 261 263 266 268 271 273 274 276 278 280 281 283 284 284 284 285 286 287 287 288 288 288 288 288 288 289 289 289 290
232 233 235 236 238 242 246 249 251 253 254 255 258 262 264 266 269 270 271 273 274 276 278 279 281 282 283 284 284 285 286 287 287 287 287 287 287 287 288 288 289 289 290
233 235 237 239 241 244 246 249 252 255 256 258 260 262 266 269 270 271 272 273 274 276 277 278 281 282 283 284 284 285 286 286 286 286 287 286 287 287 287 288 288 289 290
235 239 240 241 244 246 248 250 253 256 258 261 262 264 267 269 271 272 273 274 274 275 276 277 280 281 283 284 284 285 285 285 285 286 286 286 286 287 287 288 288 289 290
239 241 244 245 245 248 250 251 255 257 259 262 264 266 269 270 271 272 273 273 274 274 275 276 279 280 282 282 283 284 285 285 286 285 285 286 286 287 287 288 289 289 290
241 241 245 247 248 250 252 255 257 259 260 262 264 267 269 271 272 273 273 274 275 276 276 277 278 279 281 282 283 284 285 285 286 286 285 286 287 287 288 288 288 289 289
242 243 247 249 251 253 254 256 258 260 262 265 267 268 270 271 273 274 275 276 276 276 277 278 279 280 281 282 284 284 285 285 285 285 286 286 287 287 287 287 288 288 288
244 247 248 250 252 253 254 256 258 261 263 266 268 269 271 272 273 275 276 276 277 278 279 279 280 281 282 282 284 284 285 285 285 285 286 287 287 287 287 287 287 287 287
246 249 250 251 252 254 256 258 259 261 264 266 267 268 270 272 274 275 276 276 278 279 280 281 282 283 283 284 284 285 285 285 286 286 286 286 286 286 286 287 286 286 286
251 253 255 255 255 256 258 260 262 264 266 268 270 272 273 274 275 277 277 278 279 281 282 283 284 284 284 284 284 285 285 285 286 286 286 286 285 285 286 286 286 285 285
254 256 258 258 259 260 262 264 265 267 268 269 271 272 273 274 275 277 278 279 280 282 283 284 284 284 284 284 285 285 285 285 285 286 285 285 285 285 285 285 285 285 285
257 258 259 261 262 264 265 266 267 269 269 270 271 272 272 273 274 276 278 279 280 282 282 283 284 284 285 285 285 285 285 284 285 286 285 285 285 285 285 284 284 284 284
260 260 261 262 264 265 267 268 269 270 271 271 272 272 272 273 275 276 277 279 280 281 282 283 284 284 285 286 286 286 287 286 285 285 286 286 285 285 285 284 284 284 285
262 261 263 264 265 267 268 268 270 271 272 272 272 273 274 275 277 278 278 280 280 281 282 283 284 285 286 286 287 288 288 287 286 286 286 286 286 286 286 285 285 284 285
264 264 265 265 266 267 268 269 270 271 272 273 274 274 275 275 276 277 279 279 280 281 282 283 284 285 286 287 288 288 288 288 288 287 286 286 287 287 287 287 287 286 285
267 267 267 267 267 267 268 270 271 272 273 275 275 275 275 276 277 279 279 279 280 281 283 284 285 285 286 287 288 289 290 289 288 288 288 288 287 287 288 288 287 286 285
268 267 267 268 268 269 270 272 273 273 274 274 275 276 276 277 278 279 280 280 281 282 283 284 285 286 287 288 289 289 290 289 289 289 289 289 288 287 288 288 287 286 285
270 269 269 270 270 271 272 273 274 275 275 276 276 276 277 277 277 279 280 281 281 282 282 283 284 286 287 288 289 289 289 289 289 289 289 289 289 288 288 288 287 286 286
Height
5793 5797 5801 5804 5808 5811 5814 5816 5819 5821 5823 5825 5827 5828 5829 5831 5831 5832 5832 5832 5832 5832 5832 5831 5831 5830 5830 5829 5828 5827 5826 5824 5823 5822 5821 5820 5818 5817 5816 5814 5813 5811 5810
5787 5791 5795 5799 5802 5805 5808 5811 5814 5816 5818 5820 5822 5823 5824 5826 5826 5827 5827 5827 5827 5827 5827 5826 5826 5825 5824 5824 5823 5822 5820 5819 5818 5817 5815 5814 5813 5812 5810 5809 5807 5806 5804
5782 5786 5789 5793 5797 5800 5803 5806 5809 5811 5813 5815 5817 5818 5819 5820 5821 5822 5822 5822 5822 5822 5821 5821 5820 5820 5819 5818 5817 5816 5815 5814 5812 5811 5810 5808 5807 5806 5804 5803 5801 5800 5798
5775 5779 5784 5788 5791 5795 5797 5800 5803 5806 5808 5810 5811 5813 5814 5815 5815 5816 5816 5817 5816 5816 5815 5815 5815 5814 5813 5812 5811 5810 5809 5808 5806 5805 5803 5802 5801 5799 5797 5796 5794 5792 5791
5769 5773 5778 5782 5785 5789 5792 5795 5797 5800 5802 5804 5805 5807 5808 5809 5809 5810 5810 5810 5810 5810 5809 5809 5808 5808 5807 5806 5805 5804 5802 5801 5800 5798 5797 5795 5794 5792 5790 5788 5787 5785 5783
5764 5768 5772 5776 5779 5783 5786 5789 5791 5794 5796 5798 5799 5801 5801 5802 5803 5803 5804 5803 5803 5803 5802 5802 5802 5801 5800 5799 5798 5797 5796 5794 5792 5791 5789 5788 5786 5784 5782 5780 5779 5777 5775
5757 5762 5766 5770 5773 5777 5780 5783 5785 5787 5789 5791 5793 5794 5795 5795 5796 5796 5796 5796 5796 5796 5795 5795 5794 5794 5793 5792 5791 5790 5788 5787 5785 5783 5781 5780 5778 5776 5774 5772 5770 5768 5766
5751 5755 5759 5763 5767 5770 5773 5776 5778 5781 5782 5784 5786 5787 5788 5789 5789 5789 5789 5789 5789 5789 5788 5787 5786 5786 5785 5784 5783 5781 5780 5778 5777 5775 5773 5771 5769 5767 5765 5763 5761 5759 5756
5744 5748 5752 5756 5760 5763 5766 5769 5771 5773 5775 5777 5778 5780 5781 5781 5782 5782 5782 5781 5781 5781 5780 5779 5778 5777 5776 5775 5774 5772 5771 5769 5767 5766 5764 5762 5760 5757 5755 5753 5751 5748 5746
5737 5742 5746 5749 5753 5756 5759 5761 5763 5766 5768 5769 5771 5772 5773 5774 5774 5774 5774 5773 5773 5772 5772 5771 5770 5769 5767 5766 5764 5763 5761 5759 5758 5756 5754 5751 5749 5747 5745 5742 5740 5737 5735
5731 5735 5739 5742 5745 5748 5751 5753 5755 5758 5760 5761 5762 5763 5764 5764 5764 5765 5765 5764 5764 5763 5762 5762 5761 5759 5758 5757 5755 5753 5751 5749 5747 5745 5743 5741 5738 5736 5734 5731 5729 5726 5723
5723 5727 5731 5735 5737 5740 5742 5744 5747 5749 5751 5752 5753 5754 5755 5755 5755 5755 5755 5755 5754 5754 5753 5752 5751 5749 5748 5746 5744 5742 5740 5738 5736 5734 5732 5729 5727 5724 5722 5719 5717 5714 5711
5716 5720 5724 5727 5729 5732 5734 5736 5738 5740 5741 5743 5743 5744 5744 5744 5744 5744 5744 5744 5744 5743 5743 5741 5740 5738 5737 5735 5733 5731 5729 5727 5724 5722 5719 5717 5715 5712 5710 5707 5704 5702 5699
5709 5713 5715 5718 5721 5723 5725 5727 5729 5730 5731 5733 5733 5734 5734 5734 5734 5733 5733 5733 5733 5733 5732 5730 5728 5727 5725 5723 5721 5719 5717 5714 5712 5709 5707 5704 5702 5699 5697 5694 5691 5688 5686
5701 5704 5707 5709 5712 5714 5716 5718 5719 5721 5722 5723 5723 5723 5723 5723 5723 5722 5722 5721 5721 5721 5720 5719 5716 5714 5712 5710 5708 5706 5704 5701 5699 5696 5693 5691 5688 5686 5683 5680 5678 5675 5672
5694 5696 5698 5701 5703 5705 5707 5708 5709 5710 5711 5712 5712 5712 5712 5712 5712 5711 5710 5709 5708 5708 5707 5706 5704 5701 5699 5697 5695 5692 5690 5687 5685 5682 5679 5677 5674 5671 5669 5666 5663 5661 5658
5686 5688 5690 5692 5693 5695 5697 5698 5699 5700 5700 5701 5701 5701 5701 5700 5700 5699 5698 5697 5695 5694 5693 5692 5690 5687 5685 5683 5680 5678 5675 5673 5670 5667 5665 5662 5659 5656 5654 5651 5649 5646 5643
5677 5679 5681 5683 5684 5686 5687 5688 5689 5689 5689 5690 5690 5689 5689 5688 5687 5686 5685 5684 5682 5680 5679 5678 5676 5673 5671 5668 5666 5663 5661 5658 5655 5652 5650 5647 5644 5641 5639 5636 5633 5631 5628
5667 5669 5671 5673 5674 5676 5676 5677 5677 5677 5678 5678 5677 5677 5676 5675 5674 5673 5672 5670 5668 5667 5665 5663 5661 5659 5656 5654 5651 5648 5646 5643 5640 5637 5634 5631 5629 5626 5623 5620 5617 5615 5612
5657 5659 5661 5662 5663 5664 5665 5665 5665 5666 5665 5665 5664 5664 5663 5662 5660 5659 5658 5656 5655 5653 5651 5649 5646 5644 5641 5639 5636 5633 5631 5628 5625 5621 5618 5615 5613 5610 5607 5604 5602 5599 5596
5646 5648 5649 5650 5651 5652 5652 5653 5653 5653 5653 5652 5651 5650 5649 5647 5646 5645 5644 5642 5640 5639 5636 5634 5632 5629 5627 5624 5621 5618 5615 5613 5610 5606 5603 5600 5597 5594 5590 5587 5584 5582 5579
5635 5636 5637 5638 5639 5639 5640 5640 5640 5640 5639 5638 5637 5636 5635 5633 5632 5631 5630 5628 5626 5624 5622 5620 5617 5615 5612 5609 5606 5603 5600 5597 5595 5592 5588 5584 5580 5578 5574 5571 5567 5565 5562
5623 5624 5624 5625 5626 5626 5626 5626 5626 5626 5625 5624 5623 5622 5621 5619 5618 5617 5615 5613 5611 5609 5607 5605 5603 5600 5597 5594 5591 5588 5584 5581 5578 5575 5571 5569 5565 5562 5558 5554 5551 5548 5546
5611 5611 5612 5612 5612 5613 5612 5612 5612 5611 5611 5610 5608 5607 5606 5605 5604 5602 5601 5599 5597 5595 5592 5590 5588 5585 5581 5578 5575 5572 5568 5565 5563 5559 5554 5553 5550 5547 5543 5539 5535 5532 5529
5598 5599 5599 5599 5599 5599 5598 5598 5597 5597 5596 5595 5594 5593 5592 5590 5589 5587 5586 5584 5583 5580 5577 5575 5573 5569 5566 5562 5559 5556 5552 5549 5547 5544 5539 5537 5535 5532 5529 5525 5520 5516 5514
5585 5585 5586 5585 5585 5585 5584 5583 5582 5581 5581 5580 5579 5578 5577 5575 5573 5572 5571 5569 5567 5565 5563 5560 5558 5554 5551 5547 5543 5540 5536 5533 5530 5529 5525 5521 5518 5515 5514 5511 5506 5502 5499